DW1011 Weather Reports


time (UTC)temp
C
wind
direction
speed
KPH
gust
KPH
rain 1hr
cm
rain 24hr
cm
rain mn
cm
humidity
%
barometer
mb
20260906221601 28 0 0.0 9.7 0.00 0.00 0.00 36 1017.4
20260906220058 28 360 3.2 12.9 0.00 0.00 0.00 35 1017.5
20260906214555 29 360 0.0 14.5 0.00 0.00 0.00 36 1017.8
20260906213101 29 360 8.0 14.5 0.00 0.00 0.00 35 1018.0
20260906211603 29 360 4.8 17.7 0.00 0.00 0.00 34 1018.1
20260906204622 28 119 4.8 17.7 0.00 0.00 0.00 34 1018.7
20260906203100 28 360 4.8 12.9 0.00 0.00 0.00 35 1018.8
20260906201606 28 360 4.8 16.1 0.00 0.00 0.00 34 1018.9
20260906200053 28 46 3.2 17.7 0.00 0.00 0.00 38 1018.9
20260906194553 28 47 9.7 16.1 0.00 0.00 0.00 37 1018.9
20260906193059 27 0 3.2 17.7 0.00 0.00 0.00 42 1019.1
20260906191625 27 360 3.2 12.9 0.00 0.00 0.00 45 1019.4
20260906190104 26 23 6.4 16.1 0.00 0.00 0.00 45 1019.5
20260906184602 26 360 1.6 14.5 0.00 0.00 0.00 47 1019.9
20260906183107 26 360 4.8 14.5 0.00 0.00 0.00 46 1020.2
20260906181606 26 360 1.6 14.5 0.00 0.00 0.00 47 1020.4
20260906180117 26 360 3.2 9.7 0.00 0.00 0.00 48 1020.8
20260906174607 25 360 3.2 19.3 0.00 0.00 0.00 52 1020.8
20260906173054 25 360 3.2 12.9 0.00 0.00 0.00 54 1022.0
20260906171604 24 360 4.8 16.1 0.00 0.00 0.00 55 1022.2
20260906170106 23 360 1.6 12.9 0.00 0.00 0.00 58 1022.4
20260906164603 22 360 3.2 9.7 0.00 0.00 0.00 61 1022.5
20260906163058 22 360 1.6 14.5 0.00 0.00 0.00 62 1022.5
20260906161603 21 0 1.6 12.9 0.00 0.00 0.00 63 1022.5
20260906154604 21 360 1.6 9.7 0.00 0.00 0.00 66 1022.5
20260906153056 20 360 3.2 8.0 0.00 0.00 0.00 69 1022.5
20260906151553 20 0 1.6 8.0 0.00 0.00 0.00 72 1022.5
20260906150105 19 46 0.0 8.0 0.00 0.00 0.00 75 1022.5
20260906144600 18 0 0.0 6.4 0.00 0.00 0.00 77 1022.8
20260906143112 18 53 1.6 8.0 0.00 0.00 0.00 74 1022.7
20260906141603 18 38 4.8 11.3 0.00 0.00 0.00 77 1022.3
20260906140059 17 360 11.3 17.7 0.00 0.00 0.00 79 1022.4
20260906134604 17 360 12.9 16.1 0.00 0.00 0.00 79 1022.3
20260906133111 17 332 8.0 14.5 0.00 0.00 0.00 80 1022.2
20260906131604 17 360 3.2 8.0 0.00 0.00 0.00 79 1022.2
20260906130058 17 355 1.6 3.2 0.00 0.00 0.00 78 1022.1
20260906124551 17 0 0.0 3.2 0.00 0.00 0.00 79 1021.9
20260906123111 17 360 0.0 4.8 0.00 0.00 0.00 77 1021.9
20260906121557 17 360 3.2 6.4 0.00 0.00 0.00 76 1021.8
20260906120119 17 360 0.0 3.2 0.00 0.00 0.00 74 1021.8
20260906114632 17 360 1.6 4.8 0.00 0.00 0.00 73 1021.7
20260906113053 17 360 3.2 6.4 0.00 0.00 0.00 74 1021.7
20260906111607 17 360 0.0 6.4 0.00 0.00 0.00 72 1021.6
20260906104600 17 360 4.8 9.7 0.00 0.00 0.00 72 1021.8
20260906103054 17 360 4.8 12.9 0.00 0.00 0.00 68 1021.7
20260906101550 18 360 4.8 9.7 0.00 0.00 0.00 67 1021.7
20260906100103 18 360 3.2 6.4 0.00 0.00 0.00 64 1021.6
20260906094604 18 360 1.6 4.8 0.00 0.00 0.00 63 1021.6
20260906093105 18 23 0.0 3.2 0.00 0.00 0.00 61 1021.6
20260906091601 19 360 8.0 17.7 0.00 0.00 0.00 59 1020.9
20260906084642 19 32 4.8 12.9 0.00 0.00 0.00 54 1020.7
20260906083052 20 360 3.2 9.7 0.00 0.00 0.00 51 1020.6
20260906081551 21 0 0.0 0.0 0.00 0.00 0.00 45 1020.7
20260906080103 21 0 0.0 0.0 0.00 0.00 0.00 44 1020.7
20260906074602 -17 0.0 0.0 0.00 0.00 0.00 1020.7
20260906073055 -17 0.0 0.0 0.00 0.00 0.00 1020.9
20260906071553 -17 0.0 0.0 0.00 0.00 0.00 1020.7
20260906070059 -17 0.0 0.0 0.00 0.00 0.00 1020.7
20260906064553 -17 0.0 0.0 0.00 0.00 0.00 1020.7
20260906063102 -17 0.0 0.0 0.00 0.00 0.00 1020.7
20260906061554 -17 0.0 0.0 0.00 0.00 0.00 1020.7
20260906060100 -17 0.0 0.0 0.00 0.00 0.00 1020.9
20260906054637 -17 0.0 0.0 0.00 0.00 0.00 1021.1
20260906053059 -17 0.0 0.0 0.00 0.00 0.00 1021.4
20260906051554 -17 0.0 0.0 0.00 0.00 0.00 1021.0
20260906050108 -17 0.0 0.0 0.00 0.00 0.00 1020.7
20260906044601 -17 0.0 0.0 0.00 0.00 0.00 1020.6
20260906043056 25 0 0.0 19.3 0.00 0.00 0.00 34 1020.4
20260906041604 23 177 17.7 22.5 0.00 0.00 0.00 37 1020.5
20260906034600 24 360 6.4 12.9 0.00 0.00 0.00 36 1019.6
20260906033131 25 360 0.0 4.8 0.00 0.00 0.00 36 1019.6
20260906031615 25 76 0.0 6.4 0.00 0.00 0.00 35 1019.6
20260906024606 27 360 3.2 16.1 0.00 0.00 0.00 30 1018.9
20260906023104 27 360 11.3 19.3 0.00 0.00 0.00 30 1018.6
20260906021612 27 360 4.8 16.1 0.00 0.00 0.00 30 1018.7
20260906020108 27 360 14.5 20.9 0.00 0.00 0.00 30 1018.7
20260906014555 27 360 14.5 24.1 0.00 0.00 0.00 30 1018.6
20260906013051 27 360 17.7 25.7 0.00 0.00 0.00 30 1018.4
20260906011553 27 360 20.9 32.2 0.00 0.00 0.00 30 1018.6
20260906010100 27 360 19.3 30.6 0.00 0.00 0.00 29 1018.5
20260906004553 28 360 24.1 33.8 0.00 0.00 0.00 28 1018.6
20260906003054 28 360 17.7 30.6 0.00 0.00 0.00 27 1018.9
20260906001554 30 360 19.3 27.4 0.00 0.00 0.00 24 1018.7
20260906000106 30 360 14.5 27.4 0.00 0.00 0.00 25 1018.6
20260905234602 30 360 17.7 29.0 0.00 0.00 0.00 25 1018.7
20260905233056 30 360 16.1 24.1 0.00 0.00 0.00 23 1018.4
20260905231554 31 20 6.4 14.5 0.00 0.00 0.00 23 1018.3
20260905230100 31 16 14.5 20.9 0.00 0.00 0.00 22 1018.1
20260905224553 31 360 0.0 14.5 0.00 0.00 0.00 22 1018.0
20260905223104 32 360 8.0 14.5 0.00 0.00 0.00 21 1018.0